Regional Weather Roundup
Issued by NWS

Home | Current Version | Previous Version | Text Only | Print | Product List | Glossary Off
Versions: 1 2 3 4 5 6 7 8 9 10 11 12 13 14 15 16 17 18 19 20 21 22 23 24 25 26 27 28 29 30 31 32 33 34 35 36 37 38 39 40 41 42 43 44 45 46 47 48 49 50

000
ASUS43 KLOT 180812
RWRIL

ILLINOIS REGIONAL WEATHER ROUNDUP
NATIONAL WEATHER SERVICE CHICAGO/ROMEOVILLE IL
200 AM CST WED JAN 18 2017

NOTE: "FAIR" INDICATES FEW OR NO CLOUDS BELOW 12,000 FEET WITH NO
SIGNIFICANT WEATHER AND/OR OBSTRUCTIONS TO VISIBILITY.

* THESE STATIONS ARE NOT UNDER NWS QUALITY CONTROL. THEY ALSO MAY NOT
  REPORT WEATHER SUCH AS PRECIPITATION OR FOG.

ILZ001-002-007-009-015-016-024-180900-
NORTHWEST ILLINOIS

CITY           SKY/WX    TMP DP  RH WIND       PRES   REMARKS
MOLINE         CLOUDY    35  32  88 W12       30.11R FOG     WCI  27
STERLING*      CLOUDY    34  33  96 W13       30.09R FOG     WCI  25
SAVANNA*       CLOUDY    34  32  94 W6        30.09R WCI  29
$$

ILZ003-004-008-010-011-017-018-180900-
NORTH CENTRAL ILLINOIS

CITY           SKY/WX    TMP DP  RH WIND       PRES   REMARKS
ROCKFORD       CLOUDY    35  33  92 W8        30.07R FOG     WCI  29
FREEPORT*      FOG       33  33 100 W8        30.07R VSB 1/2 WCI  26
ROCHELLE*      CLOUDY    33  33 100 W9        30.07R FOG     WCI  25
DE KALB*       CLOUDY    33  33  98 W12       30.05R FOG     WCI  25
$$

ILZ005-006-012>014-019>023-180900-
NORTHEAST ILLINOIS

CITY           SKY/WX    TMP DP  RH WIND       PRES   REMARKS
CHICAGO-OHARE  DRIZZLE   34  33  96 W8        30.03R FOG     WCI  27
CHICAGO-MIDWAY CLOUDY    33  32  96 W9        30.05R FOG     WCI  25
AURORA         CLOUDY    35  33  92 W12       30.06R FOG     WCI  27
LANSING*       CLOUDY    34  34 100 W13       30.07R FOG     WCI  25
JOLIET*        CLOUDY    35  34  96 W8        30.08R FOG     WCI  29
WAUKEGAN       CLOUDY    34  33  96 W6        30.02R WCI  29
DUPAGE AIRPORT CLOUDY    35  32  88 W12       30.04R FOG     WCI  27
KANKAKEE*      CLOUDY    34  32  92 W15       30.10R WCI  24
WHEELING       CLOUDY    35  33  92 W6        30.04R WCI  30
MORRIS*        CLOUDY    34  32  94 W9        30.07R FOG     WCI  26
ROMEOVILLE*    CLOUDY    33  33 100 W9        30.07R FOG     WCI  26
NORTHERLY ISL    N/A     36  33  89 W6          N/A  WCI  31
$$

LMZ740>746-180900-
SOUTHERN LAKE MICHIGAN

STATION/POSITION SKY/WX   TEMP    WIND        PRES    VSBY  WAVE
                          AIR SEA DIR/SP/G                  HT/PER
                          (F)     (DEG/KT/KT) (MB)    (MI)  (FT/S)
HARRISON CRIB              37     270/ 13/ 14   N/A
BURNHAM HARBOR             36     250/  9/ 11   N/A
CALUMET HARBOR             35     250/  5/ 12 1017.1R
BURNS HARBOR               35     260/ 11/ 13 1018.3R
$$

ILZ025>027-034>036-040-047-049-050-058-095>099-180900-
WEST-CENTRAL ILLINOIS

CITY           SKY/WX    TMP DP  RH WIND       PRES   REMARKS
QUINCY         CLOUDY    36  32  85 W10       30.17R WCI  28
GALESBURG*     CLOUDY    34  34 100 W6        30.14R FOG     WCI  29
MACOMB*        CLOUDY    36  35  97 W8        30.17R WCI  29
JACKSONVILLE*  CLOUDY    37  34  88 W10       30.17R WCI  30
PITTSFIELD*    CLOUDY    37  33  84 W13       30.18R WCI  29
$$

ILZ028>032-037-038-041>044-048-051>054-059>061-180900-
CENTRAL ILLINOIS

CITY           SKY/WX    TMP DP  RH WIND       PRES   REMARKS
PONTIAC        CLOUDY    35  35 100 W13       30.13R WCI  26
BLOOMINGTON    CLOUDY    34  33  96 W15       30.13R FOG     WCI  24
DECATUR        CLOUDY    37  35  92 W15G23    30.14R WCI  28
PEORIA         CLOUDY    35  33  92 W9        30.14R WCI  28
LACON*         CLOUDY    33  33  98 W6        30.12R FOG     WCI  28
LINCOLN*       CLOUDY    38  37  95 W6        30.15R WCI  33
SPRINGFIELD    CLOUDY    39  35  86 W12       30.16R WCI  32
TAYLORVILLE    CLOUDY    37  34  90 W9G20     30.16R WCI  30
$$

ILZ033-039-045-046-055>057-062-063-180900-
EAST-CENTRAL ILLINOIS

CITY           SKY/WX    TMP DP  RH WIND       PRES   REMARKS
CHAMPAIGN      CLOUDY    37  35  92 W15       30.13R FOG     WCI  28
RANTOUL*       CLOUDY    37  36  96 W15       30.12R FOG     WCI  28
MATTOON        CLOUDY    37  35  92 W15       30.14R WCI  28
PARIS*         CLOUDY    37  36  96 W14       30.15R WCI  28
$$

ILZ079-100>102-180900-
SOUTHWEST ILLINOIS

CITY           SKY/WX    TMP DP  RH WIND       PRES   REMARKS
ALTON          CLOUDY    38  35  89 W9        30.19R WCI  31
BELLEVILLE     CLOUDY    40  38  93 NW9       30.18R
CAHOKIA*       CLOUDY    41  34  76 W12       30.19R
SPARTA*        CLOUDY    39  36  86 W6        30.20R
$$

ILZ064>066-069>071-074>076-080>082-084>086-088>090-092>094-180900-
SOUTH-CENTRAL ILLINOIS

CITY           SKY/WX    TMP DP  RH WIND       PRES   REMARKS
CARBONDALE     CLOUDY    41  37  86 NW7       30.19R
CAIRO*         CLOUDY    43  38  83 NW6       30.18S
EFFINGHAM*     CLOUDY    38  38  98 W9        30.18R WCI  32
MARION         CLOUDY    43  41  93 NW5       30.19S
MT. VERNON     CLOUDY    40  36  86 W5        30.18S
CENTRALIA*     CLOUDY    40  38  91 W9        30.18R
SALEM*         CLOUDY    40  37  86 W8        30.18R
METROPOLIS*    CLOUDY    44  39  84 CALM      30.19R
$$

ILZ067-068-072-073-078-083-087-091-180900-
SOUTHEAST ILLINOIS

CITY           SKY/WX    TMP DP  RH WIND       PRES   REMARKS
LAWRENCEVILLE  CLOUDY    40  37  89 W9        30.17R
FLORA*         CLOUDY    41  37  85 W12       30.18S
FAIRFIELD*     CLOUDY    40  37  87 CALM      30.17S
HARRISBURG*    CLOUDY    41  38  89 NW7       30.19S
ROBINSON*      CLOUDY    38  36  94 NW6       30.17R WCI  33
CARMI*         CLOUDY    41  39  93 W7        30.17S
$$

ABBREVIATIONS USED IN REMARKS
   TC - TEMPERATURE IN CELSIUS
  WCI - WIND CHILL INDEX
   HX - HEAT INDEX
  VSB - VISIBILITY
$$




USA.gov is the U.S. government's official web portal to all federal, state and local government web resources and services.